OPS 4682 DEB, 38383

Orbit data source: Space-Track

OPS 4682 DEB, 38383 is space debris in LEO originally from a launch on Sat, 03 Apr 1965 UTC launched from the Air Force Western Test Range (AFWTR). Debris objects in space refer to the collection of defunct objects orbiting the Earth. Examples of debris include non-operational satellites, rocket bodies, and fragments generated from explosions, collisions, or faulty payload assembly.

Loading next visibility...
Identifier
38383, 1965-027CL
Orbit
LEO
Country
Flag of USUS
Related business
Manufacturer
Unknown
Mission
Spacecraft
Bus & Motor
Unknown
Mass
Unknown
Launch date (UTC)
1965-04-03 (61 years ago)
Launch vehicle
Unknown
Launch site
Air Force Western Test Range (AFWTR)
Object type
Payload
Rocket body
Debris
Shape & HBR
Unknown shape, 0.1 m
Radar Cross Section
Small (<0.1 m²)

Expand to show TLE details & history
Last TLE update: 15 hours ago

TLE from 15 hours ago
0 OPS 4682 DEB
1 38383U 65027CL  25340.77933428  .00000499  00000-0  17036-2 0  9993
2 38383  90.2466   7.6021 0027250 257.2295 102.5780 12.96955602558666
Epoch: 2025-12-06T18:42Z
TLE epoch observation values (Epoch: 2025-12-06T18:42:14.481Z)
Latitude
-0°
Longitude
11.23959°
Altitude
1,281.513 km
Speed
7.213 km/s
True Right ascension
00h 30m 24s
True Declination
0° 00' 00"
Sunlit
Object was in daylight at epoch
Visualization orbit readout
Latitude
Unknown
Longitude
Unknown
Altitude
Unknown
Speed
Unknown
Apparent Right ascension
Unknown
Apparent Declination
Unknown
Sunlit
N/A
Visualization observer readout
Local Sidereal Time
07:42:20
Azimuth
Unknown
Elevation
Unknown
Doppler factor
Unknown
Orbital elements
Apogee altitude
1,292.014 km
Perigee altitude
1,250.325 km
Semi-major axis
7,649.307 km
Eccentricity
0.00273
Inclination
90.2466°
RAAN
7.6021°
Arg. of periapsis
257.2295°
True anomaly
102.88254°
Mean anomaly
102.578°
Eccentric anomaly
102.73029°
Mean motion
3.24422 °/min
Orbital period
110.97 mins
BSTAR
0.0017036
Loading maneuver chart data...
Computing Atmospheric mass density...
Loading historical data...
Loading historical data...
Loading historical data...
Loading historical data...
Loading historical data...
Loading historical data...
Loading historical data...

Documentation

Showing up to 5 results
|